Flag for Madagascar Weather past 2 weeks in Antananarivo, Madagascar

Now
90 °F

Partly sunny.


Feels Like: 87 °F
Forecast: 60 / 86 °F
Wind: 3 mph from North

Location: Antananarivo / Ivato

Current Time: Oct 2, 2014 at 3:33:59 PM

Latest Report: Oct 2, 2014 at 3:00 PM


Visibility: N/A

Pressure: 30.04 "Hg

Humidity: 29%

Dew point: 54 °F

Location of AntananarivoLocation

Historic Weather in Antananarivo — Graph

°F

Antananarivo temperature yesterday

Maximum temperature yesterday: 82 °F (at 2:00 PM)
Minimum temperature yesterday: 54 °F (at 4:30 AM)
Average temperature yesterday: 67 °F

Past Weeks' High & Low Weather Summary

 TemperatureHumidityPressure
High90 °F (Oct 2, 2:00 PM)100% (Sep 17, 10:30 PM)30.36 "Hg (Sep 17, 10:30 PM)
Low48 °F (Sep 19, 3:00 AM)31% (Oct 2, 2:30 PM)30.07 "Hg (Oct 2, 1:30 PM)
Average65 °F80%30.24 "Hg
* Reported Sep 17 2:00 PM — Oct 2 2:30 PM, Antananarivo, Weather by CustomWeather, © 2014

Note: Actual official high and low records may vary slightly from our data, if they occured in-between our weather recording intervals... More about our weather records

Advertising

Antananarivo weather history for previous 24 hours

 ConditionsComfort  
Time TempWeatherWind HumidityBarometerVisibility
2:30 PM
Oct 2
88 °FScattered clouds.3 mph31%30.07 "HgN/A
2:00 PM90 °FScattered clouds.6 mph33%30.07 "HgN/A
1:30 PM88 °FScattered clouds.3 mph35%30.07 "HgN/A
1:00 PM86 °FPassing clouds.3 mph38%30.09 "HgN/A
12:30 PM86 °FPassing clouds.6 mph40%30.12 "HgN/A
12:00 PM84 °FPassing clouds.5 mph43%30.12 "HgN/A
11:30 AM82 °FPassing clouds.2 mph45%30.15 "HgN/A
11:00 AM82 °FPassing clouds.6 mph48%30.15 "HgN/A
10:30 AM79 °FPassing clouds.5 mph54%30.18 "HgN/A
10:00 AM77 °FPassing clouds.5 mph61%30.18 "HgN/A
9:30 AM75 °FPassing clouds.3 mph69%30.18 "HgN/A
9:00 AM73 °FPassing clouds.3 mph74%30.18 "HgN/A
8:30 AM72 °FPassing clouds.3 mph73%30.18 "HgN/A
8:00 AM68 °FPassing clouds.5 mph83%30.18 "HgN/A
7:30 AM64 °FPassing clouds.2 mph94%30.18 "HgN/A
7:00 AM61 °FScattered clouds.3 mph100%30.18 "HgN/A
6:30 AM61 °FScattered clouds.2 mph100%30.18 "HgN/A
6:00 AM55 °FScattered clouds.1 mph100%30.18 "HgN/A
5:30 AM54 °FPassing clouds.1 mph100%30.15 "HgN/A
5:00 AM54 °FPassing clouds.3 mph100%30.15 "HgN/A
4:30 AM54 °FPassing clouds.6 mph100%30.15 "HgN/A
4:00 AM54 °FPassing clouds.3 mph100%30.15 "HgN/A
3:30 AM55 °FPassing clouds.No wind100%30.15 "HgN/A
3:00 AM55 °FPassing clouds.1 mph100%30.15 "HgN/A
2:30 AM55 °FPassing clouds.3 mph100%30.15 "HgN/A
2:00 AM55 °FPassing clouds.2 mph100%30.15 "HgN/A
1:30 AM55 °FPassing clouds.1 mph100%30.15 "HgN/A
1:00 AM57 °FPassing clouds.No wind100%30.15 "HgN/A
12:30 AM57 °FPassing clouds.2 mph100%30.18 "HgN/A
12:00 AM59 °FPassing clouds.No wind100%30.18 "HgN/A
11:30 PM
Oct 1
59 °FPassing clouds.2 mph100%30.18 "HgN/A
11:00 PM61 °FPassing clouds.3 mph100%30.21 "HgN/A
10:30 PM61 °FPassing clouds.5 mph100%30.21 "HgN/A
10:00 PM61 °FPassing clouds.6 mph100%30.21 "HgN/A
9:30 PM61 °FPassing clouds.7 mph100%30.21 "HgN/A
9:00 PM63 °FPassing clouds.5 mph88%30.21 "HgN/A
8:30 PM63 °FPassing clouds.5 mph88%30.21 "HgN/A
8:00 PM64 °FPassing clouds.9 mph83%30.18 "HgN/A
7:30 PM66 °FPassing clouds.9 mph78%30.18 "HgN/A
7:00 PM68 °FPassing clouds.8 mph73%30.18 "HgN/A
6:30 PM70 °FPassing clouds.8 mph69%30.15 "HgN/A
6:00 PM72 °FPassing clouds.9 mph65%30.15 "HgN/A
5:30 PM75 °FPassing clouds.12 mph57%30.15 "HgN/A
5:00 PM77 °FPassing clouds.10 mph57%30.12 "HgN/A
4:30 PM79 °FPassing clouds.9 mph51%30.12 "HgN/A
4:00 PM81 °FPassing clouds.8 mph48%30.12 "HgN/A
3:30 PM81 °FPassing clouds.8 mph51%30.12 "HgN/A
3:00 PM81 °FPassing clouds.9 mph48%30.12 "HgN/A
Weather by CustomWeather, © 2014

See weather overviewHow to use our weather pages